Flag for U.S.A. Weather past 2 weeks in Ontario, California, U.S.A.

Now
83 °F

Partly sunny.


Feels Like: 82 °F
Forecast: 62 / 86 °F
Wind: 8 mph from Southwest

Location: Ontario International Airport

Current Time: Sep 1, 2015 at 1:18:28 PM

Latest Report: Sep 1, 2015 at 12:53 PM


Visibility: 10 mi

Pressure: 29.87 "Hg

Humidity: 37%

Dew point: 54 °F

Location of OntarioLocation

Historic Weather in Ontario — Graph

°F

Ontario temperature yesterday

Maximum temperature yesterday: 90 °F (at 2:53 PM)
Minimum temperature yesterday: 67 °F (at 11:53 PM)
Average temperature yesterday: 76 °F

Past Weeks' High & Low Weather Summary

 TemperatureHumidityPressure
High105 °F (Aug 28, 2:53 PM)87% (Aug 18, 6:53 AM)29.95 "Hg (Aug 18, 6:53 AM)
Low65 °F (Aug 19, 4:53 AM)14% (Aug 28, 2:53 PM)29.75 "Hg (Aug 28, 4:53 PM)
Average79 °F55%29.86 "Hg
* Reported Aug 17 11:53 AM — Sep 1 11:53 AM, Ontario, Weather by CustomWeather, © 2015

Note: Actual official high and low records may vary slightly from our data, if they occured in-between our weather recording intervals... More about our weather records

Advertising

Ontario weather history for previous 24 hours

 ConditionsComfort  
Time TempWeatherWind HumidityBarometerVisibility
11:53 AM
Tue, Sep 1
79 °FOvercast.7 mph47%29.89 "Hg10 mi
10:53 AM75 °FPartly sunny.6 mph55%29.91 "Hg10 mi
9:53 AM72 °FPartly sunny.No wind64%29.91 "Hg7 mi
8:53 AM69 °FPartly sunny.3 mph70%29.90 "Hg8 mi
7:53 AM68 °FPartly sunny.5 mph76%29.90 "Hg10 mi
6:53 AM67 °FOvercast.6 mph79%29.89 "Hg8 mi
5:53 AM67 °FOvercast.6 mph79%29.87 "Hg10 mi
4:53 AM67 °FOvercast.5 mph79%29.86 "Hg10 mi
3:53 AM67 °FPassing clouds.3 mph79%29.86 "Hg10 mi
2:53 AM67 °FPassing clouds.7 mph81%29.86 "Hg10 mi
1:53 AM66 °FPassing clouds.6 mph84%29.88 "Hg10 mi
12:53 AM66 °FPassing clouds.7 mph84%29.88 "Hg10 mi
11:53 PM
Mon, Aug 31
67 °FClear.8 mph81%29.88 "Hg10 mi
10:53 PM69 °FClear.7 mph76%29.87 "Hg10 mi
9:53 PM70 °FClear.7 mph73%29.86 "Hg10 mi
8:53 PM73 °FClear.7 mph62%29.84 "Hg10 mi
7:53 PM75 °FSunny.10 mph55%29.81 "Hg10 mi
6:53 PM79 °FSunny.12 mph45%29.80 "Hg10 mi
5:53 PM84 °FSunny.12 mph36%29.79 "Hg10 mi
4:53 PM87 °FSunny.15 mph35%29.79 "Hg10 mi
3:53 PM89 °FPassing clouds.15 mph31%29.79 "Hg10 mi
2:53 PM90 °FPassing clouds.13 mph27%29.80 "Hg10 mi
1:53 PM89 °FPassing clouds.10 mph31%29.83 "Hg10 mi
Weather by CustomWeather, © 2015

See weather overviewHow to use our weather pages